Weather History for Moron de la Frontera, Spain

Change the Weather History Date:

Wednesday, November 14, 2012

  Actual Average Record
Temperature  
Mean Temperature 56 °F -  
Max Temperature 69 °F 63 °F 73 °F (1998)
Min Temperature 44 °F 45 °F 39 °F (2001)
Degree Days  
Heating Degree Days 8    
Growing Degree Days 6 (Base 50)    
Moisture  
Dew Point 49 °F    
Average Humidity 80    
Maximum Humidity 100    
Minimum Humidity 52    
Precipitation  
Precipitation 0.00 in - - ()
Sea Level Pressure  
Sea Level Pressure 29.96 in    
Wind  
Wind Speed 1 mph ()    
Max Wind Speed 6 mph    
Max Gust Speed -    
Averages and records for this station are not official NWS values.
T = Trace of Precipitation, MM = Missing Value Source: Averaged Metar Reports

Daily Weather History Graph

Daily Weather History Graph

Search for Another Location

Airport:

Trip Planner

Search our weather history database for the weather conditions in past years. The results will help you decide how hot, cold, wet, or windy it might be!

Date:

Astronomy

Nov. 14, 2012 Rise Set
Actual Time 8:00 AM CET 6:12 PM CET
Civil Twilight 7:32 AM CET 6:40 PM CET
Nautical Twilight 7:01 AM CET 7:12 PM CET
Astronomical Twilight 6:30 AM CET 7:42 PM CET
Moon 8:32 AM CET (11/14) 6:49 PM CET (11/14)
Length of Visible Light 11h 07m
Length of Day
10h 12m
New Moon, 0% of the Moon is Illuminated
Nov 14
New Moon
Nov 20
First Quarter
Nov 28
Full
Dec 6
Last Quarter
Dec 13
New

Hourly Weather History & Observations

Time (CET) Temp. Dew Point Humidity Pressure Visibility Wind Dir Wind Speed Gust Speed Precip Events Conditions
12:00 AM 48.2 °F 46.4 °F 93% 30.01 in - Variable 1.2 mph - N/A   Clear
1:00 AM 48.2 °F 46.4 °F 93% 29.98 in - Variable 1.2 mph - N/A   Clear
2:00 AM 46.4 °F 44.6 °F 93% 29.98 in - Calm Calm - N/A   Clear
3:00 AM 46.4 °F 44.6 °F 93% 29.98 in - Variable 1.2 mph - N/A   Clear
4:00 AM 46.4 °F 44.6 °F 93% 29.95 in - Variable 2.3 mph - N/A   Clear
5:00 AM 48.2 °F 46.4 °F 93% 29.95 in - Variable 2.3 mph - N/A   Clear
6:00 AM 44.6 °F 44.6 °F 100% 29.95 in - Variable 2.3 mph - N/A   Clear
7:00 AM 44.6 °F 44.6 °F 100% 29.95 in - Calm Calm - N/A   Clear
8:00 AM 44.6 °F 44.6 °F 100% 29.95 in - Calm Calm - N/A   Clear
9:00 AM 48.2 °F 46.4 °F 93% 29.98 in - Variable 1.2 mph - N/A   Clear
10:00 AM 53.6 °F 48.2 °F 82% 29.98 in - Calm Calm - N/A   Clear
11:00 AM 59.0 °F 48.2 °F 67% 29.98 in - Calm Calm - N/A   Clear
12:00 PM 62.6 °F 50.0 °F 63% 29.98 in - Calm Calm - N/A   Clear
1:00 PM 66.2 °F 51.8 °F 60% 29.95 in - West 5.8 mph - N/A   Clear
2:00 PM 68.0 °F 50.0 °F 52% 29.95 in - Variable 1.2 mph - N/A   Clear
3:00 PM 69.8 °F 51.8 °F 53% 29.92 in - Variable 2.3 mph - N/A   Clear
4:00 PM 69.8 °F 51.8 °F 53% 29.92 in - Variable 1.2 mph - N/A   Clear
5:00 PM 68.0 °F 55.4 °F 64% 29.95 in - Variable 1.2 mph - N/A   Clear
6:00 PM 66.2 °F 53.6 °F 64% 29.95 in - NNE 2.3 mph - N/A   Clear
7:00 PM 60.8 °F 53.6 °F 77% 29.95 in - North 1.2 mph - N/A   Clear
8:00 PM 57.2 °F 51.8 °F 82% 29.95 in - East 4.6 mph - N/A   Clear
9:00 PM 59.0 °F 51.8 °F 77% 29.95 in - Calm Calm - N/A   Clear
10:00 PM 55.4 °F 50.0 °F 82% 29.95 in - Calm Calm - N/A   Clear
11:00 PM 55.4 °F 51.8 °F 88% 29.98 in - East 1.2 mph - N/A   Clear